Tracking 20241 objects as of 26-Jan-2020
HD Live streaming from Space Station
objects crossing your sky now

COSMOS 894

Track COSMOS 894 now!
10-day predictions
COSMOS 894 is classified as:


NORAD ID: 9846
Int'l Code: 1977-013A
Perigee: 971.4 km
Apogee: 1,013.7 km
Inclination: 82.9 °
Period: 104.8 minutes
Semi major axis: 7363 km
RCS: 3.5762 m2 (large)
Launch date: February 21, 1977
Source: Commonwealth of Independent States (former USSR) (CIS)
Launch site: PLESETSK MISSILE AND SPACE COMPLEX (PKMTR)
aabbcc
Your satellite tracking list
Your tracking list is empty




NASA's NSSDC Master Catalog

Two Line Element Set (TLE):
1  9846U 77013A   20025.49179508 +.00000027 +00000-0 +12588-4 0  9994
2  9846 082.9443 023.5767 0028755 229.8389 239.6845 13.73958910151557
Source of the keplerian elements: AFSPC